Date,TemperatureHighF,TemperatureAvgF,TemperatureLowF,DewpointHighF,DewpointAvgF,DewpointLowF,HumidityHigh,HumidityAvg,HumidityLow,PressureMaxIn,PressureMinIn,WindSpeedMaxMPH,WindSpeedAvgMPH,GustSpeedMaxMPH,PrecipitationSumIn
2013-3-1,43.8,39.8,35.8,41.1,35.6,31.8,97,85,70,30.41,30.36,8,5,17,0.03
2013-3-2,40.4,36.5,29.1,33.8,31.7,27.3,93,83,75,30.40,30.28,5,2,16,0.00
2013-3-3,45.5,37.4,27.9,37.4,33.3,26.4,95,86,69,30.28,30.12,8,3,18,0.00
2013-3-4,50.9,40.5,33.7,37.3,34.5,32.0,94,80,53,30.10,29.75,8,4,17,0.00
2013-3-5,60.0,45.4,31.4,44.9,38.8,30.2,97,79,56,29.74,29.59,4,1,11,0.00
2013-3-6,54.5,48.9,44.4,45.6,42.9,39.9,90,80,70,29.58,29.51,6,4,13,0.01
2013-3-7,48.9,46.8,44.4,48.1,46.0,43.0,99,97,91,29.51,29.37,6,4,11,0.26
2013-3-8,49.9,48.0,45.6,49.6,47.8,45.3,100,99,99,29.54,29.38,5,2,10,0.28
2013-3-9,45.0,41.7,37.5,44.7,40.7,35.7,99,96,91,29.67,29.54,4,2,10,0.09
2013-3-10,37.7,35.5,32.5,35.5,32.7,28.9,95,90,84,29.75,29.66,10,7,24,0.00
2013-3-11,33.7,31.0,27.2,28.6,23.9,18.8,86,75,57,29.77,29.74,16,12,32,0.00
2013-3-12,41.1,33.3,27.0,32.8,25.0,19.2,91,73,46,29.83,29.75,12,8,29,0.00
2013-3-13,44.7,37.2,30.9,31.9,29.6,25.7,91,75,47,29.95,29.79,6,4,18,0.00
2013-3-14,44.7,36.4,27.9,32.7,27.4,24.0,95,72,44,30.03,29.92,5,3,16,0.01
2013-3-15,47.3,41.8,35.5,42.8,38.8,28.1,96,89,72,29.91,29.54,12,8,29,0.31
2013-3-16,46.4,43.0,38.3,42.7,40.9,36.7,96,92,85,29.52,29.26,12,8,30,0.46
2013-3-17,43.6,38.7,33.4,41.7,37.4,32.9,98,95,89,29.31,29.16,10,3,22,0.27
2013-3-18,45.8,36.5,29.6,42.7,35.7,29.1,99,97,86,29.36,29.22,4,1,11,0.13
2013-3-19,46.4,38.6,33.4,39.5,35.9,32.6,98,90,69,29.51,29.36,5,2,10,0.01
2013-3-20,41.7,37.8,33.9,38.9,36.1,32.6,98,93,89,30.00,29.51,4,3,11,0.00
2013-3-21,42.7,37.9,32.4,36.0,33.5,30.9,95,84,74,30.03,29.92,10,6,24,0.02
2013-3-22,41.7,37.6,35.1,35.9,34.5,32.7,95,88,79,29.91,29.74,14,10,28,0.19
2013-3-23,36.3,33.8,33.0,35.0,32.7,31.9,98,96,94,29.89,29.75,10,8,22,0.18
2013-3-24,33.7,31.8,30.6,31.8,28.4,25.3,95,88,72,29.95,29.87,10,8,22,0.00
2013-3-25,33.7,32.9,31.7,28.1,26.4,24.6,83,77,71,29.98,29.93,11,8,26,0.00
2013-3-26,34.2,33.0,31.4,28.0,26.2,25.4,86,76,70,29.95,29.90,9,7,19,0.00
2013-3-27,40.2,34.1,29.5,28.7,26.7,25.2,90,75,61,29.89,29.86,9,5,19,0.00
2013-3-28,39.7,35.2,30.1,31.1,27.8,24.8,92,75,60,29.95,29.85,8,5,18,0.00
2013-3-29,43.1,35.8,28.8,29.4,26.0,23.5,85,69,49,29.93,29.79,9,5,20,0.00
2013-3-30,44.3,36.6,32.8,32.5,29.2,27.4,85,75,59,29.97,29.79,7,5,17,0.00
2013-3-31,41.6,35.4,26.6,30.0,26.6,23.7,92,72,50,29.99,29.90,8,4,17,0.00